Location: Wald
(31.7579°N, 86.6655°W)
Time: 21:14:55
(UTC+00:00)

Cosmos 2016 Rocket - Pass Details

Date: 14 July 2020
Orbit: 948 x 999 km, 83.0° (Epoch: 13 August)

Event Time Altitude Azimuth Distance (km) Brightness Sun altitude
Exits shadow 07:07:36 54° 59° (ENE) 1,156 4.5 -33.7°
Drops below altitude 10° 07:12:48 10° 15° (NNE) 2,709 7.1 -33.3°
Sets 07:15:22 0° 11° (NNE) 3,667 8.0 -33.1°
